www.pogodaiklimat.ru

Погода и климат >> Архив погоды >> Индия >> Kozhikode


ПОГОДА в Kozhikode

  • Прогноз погоды в Kozhikode
  • Монитор погоды в Kozhikode
  • Климат города

АРХИВ ПОГОДЫ в Kozhikode

Время (UTC), дата Ветер
(напр.,м/с)
 
Видим.   Явления Облачность Т
(С)
Тd
(С)
f
(%)
Тe
(С)
Тes
(С)
Комфортность P
(гПа)
Po
(гПа)
Тmin
(С)
Tmax
(С)
R
(мм)
S
(см)
18 18.03 С 1 4000 м 3/3 600 м
[Sc diur, vesp]
+29.0 +25.0 79 +42 +42 опасность
перегрева
1012.7 1013.0
21 18.03 штиль 0 4000 м 8/4 600 м
[Sc diur, vesp Ac trans Ci fib]
+28.8 +24.8 79 +41 +41 опасность
перегрева
1011.4 1011.0
00 19.03 штиль 0 4000 м 5/3 600 м
[Sc diur, vesp Ac trans Ci fib]
+27.6 +25.0 86 +40 +40 очень
душно
1011.6 1012.0
03 19.03 штиль 0 10 км 1/1 600 м
[Sc diur, vesp]
+29.4 +24.5 75 +42 +48 опасность
перегрева
1013.4 1013.0 +26.6 +36.0
06 19.03 З 2 10 км 1/1 600 м
[Cu hum]
+32.8 +25.2 64 +47 +66 опасность
перегрева
1013.5 1014.0
09 19.03 ЮЗ 2 10 км 1/1 600 м
[Sc diur, vesp]
+35.4 +26.6 61 +53 +67 опасность
перегрева
1010.8 1011.0
12 19.03 СЗ 2 10 км 5/1 600 м
[Sc diur, vesp Ac trans]
+32.8 +25.5 66 +48 +49 опасность
перегрева
1010.6 1011.0 +35.8
15 19.03 штиль 0 4000 м 5/3 600 м
[Sc diur, vesp Ci fib]
+29.8 +25.3 77 +44 +44 опасность
перегрева
1012.4 1012.0
18 19.03 ЮЗ 2 4000 м 5/3 600 м
[Sc diur, vesp Ac trans]
+29.0 +24.4 76 +41 +41 опасность
перегрева
1012.6 1013.0
21 19.03 штиль 0 4000 м 5/3 600 м
[Sc diur, vesp]
+27.4 +24.3 83 +38 +38 очень
душно
1011.1 1011.0
00 20.03 штиль 0 4000 м 4/1 600 м
[Sc diur, vesp Ac trans]
+27.2 +24.0 83 +38 +38 очень
душно
1011.5 1012.0
03 20.03 З 1 10 км 4/1 600 м
[Sc diur, vesp Ac trans Ci fib]
+29.2 +23.4 71 +40 +45 очень
душно
1013.3 1013.0 +26.4 +35.8
06 20.03 З 1 10 км 3/3 600 м
[Sc diur, vesp]
+32.6 +25.3 66 +47 +64 опасность
перегрева
1013.2 1013.0
09 20.03 З 2 10 км 1/1 600 м
[Sc diur, vesp]
+34.4 +25.1 59 +48 +63 опасность
перегрева
1010.0 1010.0
12 20.03 З 2 10 км 6/4 300 м
[Cu Sc Ac trans Ci fib]
+32.4 +25.4 67 +47 +48 опасность
перегрева
1009.7 1010.0 +35.4
15 20.03 С 1 4000 м 8/4 600 м
[Cu Sc Ac trans Ci fib]
+29.8 +24.4 73 +42 +42 опасность
перегрева
1011.8 1012.0
18 20.03 штиль 0 4000 м 6/4 600 м
[Cu Sc Ac trans Ci fib]
+29.2 +24.0 74 +41 +41 опасность
перегрева
1012.3 1012.0
21 20.03 СЗ 1 4000 м 9/5 600 м
[Cu Sc Ac As]
+29.0 +24.8 78 +41 +41 опасность
перегрева
1011.4 1011.0
00 21.03 штиль 0 4000 м 9/4 600 м
[Cu Sc Ac As]
+28.2 +24.2 79 +39 +39 очень
душно
1011.4 1011.0
03 21.03 штиль 0 4000 м 10/4 600 м
[Cu Sc Ac As]
+28.4 +24.4 79 +40 +41 очень
душно
1013.5 1014.0 +27.7 +35.4
06 21.03 З 1 10 км 10/4 600 м
[Cu Sc Ac As]
+30.6 +24.3 69 +43 +47 опасность
перегрева
1013.8 1014.0
09 21.03 ЮЗ 2 10 км 10/4 600 м
[Cu Sc Ac As]
+33.6 +27.9 72 +54 +57 опасность
перегрева
1010.6 1011.0
12 21.03 СЗ 2 10 км 4/1 600 м
[Sc diur, vesp Ac trans]
+32.4 +26.3 70 +49 +50 опасность
перегрева
1009.8 1010.0 +34.8
15 21.03 СЗ 2 4000 м 5/3 600 м
[Cu med, cong Ci fib]
+29.6 +26.0 81 +44 +44 опасность
перегрева
1012.1 1012.0
18 21.03 штиль 0 4000 м 5/4 600 м
[Cu Sc Ac trans Ci fib]
+29.2 +24.0 74 +41 +41 опасность
перегрева
1012.3 1012.0
21 21.03 штиль 0 4000 м 5/1 600 м
[Sc diur, vesp Ac trans]
+29.0 +24.4 76 +41 +41 опасность
перегрева
1011.4 1011.0
00 22.03 штиль 0 4000 м 5/1 600 м
[Sc diur, vesp Ac trans]
+27.0 +24.7 87 +38 +38 очень
душно
1010.7 1011.0
03 22.03 штиль 0 10 км 5/1 600 м
[Sc diur, vesp Ac lent]
+28.8 +24.5 78 +41 +45 опасность
перегрева
1012.7 1013.0 +26.6 +34.8
06 22.03 Ю 2 10 км 4/1 600 м
[Sc diur, vesp Ac trans]
+34.6 +25.7 60 +50 +64 опасность
перегрева
1012.8 1013.0
09 22.03 З 3 10 км 1/1 600 м
[Sc diur, vesp]
+35.6 +26.2 58 +51 +64 опасность
перегрева
1010.3 1010.0
12 22.03 СЗ 2 10 км 6/4 600 м
[Cu Sc Ac trans Ci fib]
+32.2 +26.1 70 +48 +49 опасность
перегрева
1009.1 1009.0 +36.4
15 22.03 С 1 4000 м 4/3 600 м
[Sc diur, vesp Ci fib]
+29.8 +25.6 78 +44 +44 опасность
перегрева
1010.5 1011.0
18 22.03 штиль 0 4000 м 3/3 600 м
[Sc diur, vesp]
+28.8 +25.4 82 +42 +42 опасность
перегрева
1011.3 1011.0
21 22.03 штиль 0 4000 м 5/5 600 м
[Sc diur, vesp]
+28.0 +25.2 85 +41 +41 опасность
перегрева
1009.9 1010.0
00 23.03 штиль 0 4000 м 3/1 600 м
[Sc diur, vesp Ci fib]
+26.6 +24.3 87 +37 +37 очень
душно
1010.5 1011.0
03 23.03 штиль 0 10 км 1/1 600 м
[Sc diur, vesp]
+29.0 +25.3 80 +42 +49 опасность
перегрева
1012.8 1013.0 +26.2 +36.4
06 23.03 З 2 10 км 3/3 600 м
[Sc]
+34.0 +25.6 62 +49 +64 опасность
перегрева
1012.8 1013.0
09 23.03 З 2 10 км ясно +35.0 +26.1 60 +51 +68 опасность
перегрева
1009.7 1010.0
12 23.03 З 1 10 км ясно +33.6 +24.9 60 +47 +48 опасность
перегрева
1008.9 1009.0 +36.2
15 23.03 З 1 4000 м 3/3 600 м
[]
+31.0 +25.3 72 +45 +45 опасность
перегрева
1010.2 1010.0
18 23.03 З 1 4000 м 3/1 600 м
[Sc diur, vesp Ci sp]
+30.0 +26.2 80 +45 +45 опасность
перегрева
1010.6 1011.0
21 23.03 штиль 0 4000 м 3/1 600 м
[Sc diur, vesp Ci sp]
+28.0 +25.2 85 +41 +41 опасность
перегрева
1010.6 1011.0
00 24.03 штиль 0 4000 м 3/1 600 м
[Sc diur, vesp Ci sp]
+26.6 +24.3 87 +37 +37 очень
душно
1010.8 1011.0
03 24.03 штиль 0 10 км ясно +29.0 +23.1 71 +39 +47 очень
душно
1012.4 1012.0 +25.0 +36.2
06 24.03 З 2 10 км ясно +35.0 +25.2 57 +49 +71 опасность
перегрева
1011.9 1012.0
09 24.03 ЮЗ 2 10 км ясно +36.0 +24.7 52 +49 +66 опасность
перегрева
1008.7 1009.0
12 24.03 З 1 10 км ясно +32.4 +25.4 67 +47 +49 опасность
перегрева
1008.0 1008.0 +37.0
15 24.03 штиль 0 4000 м ясно +30.0 +23.3 67 +40 +40 очень
душно
1010.9 1011.0
18 24.03 штиль 0 4000 м ясно +29.0 +23.2 71 +39 +39 очень
душно
1012.3 1012.0
21 24.03 штиль 0 4000 м ясно +27.0 +24.0 84 +37 +37 очень
душно
1011.0 1011.0
00 25.03 штиль 0 4000 м ясно +25.6 +21.7 79 +33 +33 очень
душно
1011.0 1011.0
03 25.03 штиль 0 10 км ясно +28.0 +22.1 70 +36 +44 очень
душно
1013.2 1013.0 +25.0 +37.0
06 25.03 З 1 10 км ясно +34.6 +26.0 61 +50 +74 опасность
перегрева
1012.8 1013.0
09 25.03 Ю 2 10 км ясно +36.0 +26.3 58 +53 +69 опасность
перегрева
1009.1 1009.0
12 25.03 СЗ 2 10 км 3/1 600 м
[Sc diur, vesp Ci fib]
+32.2 +26.1 70 +48 +49 опасность
перегрева
1008.2 1008.0 +36.4

 

Местоположение метеостанции Kozhikode (Kerala, Индия): широта 11.25 долгота 75.78 высота над уровнем моря 5 м.

В архиве по умолчанию представлена погода в Kozhikode за последнюю неделю. Архивные данные за месяц целиком и за предыдущие месяцы, начиная с января 2011 года, Вы можете получить, выбрав интересующий диапазон дат из раскрывающегося списка и нажав кнопку "Ввод!".

Внимание! Время в таблицах - всемирное. Для получения местного времени необходимо прибавить поправку, которая в Kozhikode равна 5.5 ч.

Смотрите также архив погоды в соседних городах и на ближайших метеорологических станциях:

Погода в Karipur (Kerala, Индия) (23 км)
Погода в Cannanore (Kerala, Индия) (81 км)
Погода в Thrissur (Kerala, Индия) (94 км)
Погода в Udhagamandalam (Tamil Nadu, Индия) (105 км)
Погода в Palakkad (Kerala, Индия) (109 км)
Погода в Coonoor (Tamil Nadu, Индия) (112 км)
Погода в Madikeri (Karnataka, Индия) (130 км)
Погода в Kochi (Kerala, Индия) (140 км)
Погода в Coimbatore (Tamil Nadu, Индия) (141 км)
Погода в Chamarajnagar (Karnataka, Индия) (146 км)

Пояснения к столбцам:

Ветер - указаны скорость ветра в м/с - средняя за 10 мин, порывы в срок и между сроками (в фигурных скобках) и направление, откуда дует ветер: С - северный, СВ - северо-восточный, В - восточный, ЮВ - юго-восточный, Ю - южный, ЮЗ - юго-западный, З - западный, СЗ - северо-западный.
Видимость - горизонтальная дальность видимости в метрах или километрах. При видимости от 1 до 10 км при отсутствии осадков обычно наблюдается дымка, при ухудшении видимости до 1 км и менее - туман. В сухую погоду видимость может ухудшаться дымом, пылью или мглою.
Явления - указаны атмосферные явления, наблюдавшиеся в срок или в последний час перед сроком; фигурными скобками обозначены явления, наблюдавшиеся между сроками (за 1-3 часа до срока); квадратными скобками обозначены град или гололедные отложения с указанием их диаметра в мм.
Облачность - указаны через наклонную черту общая и нижняя облачность в баллах и высота нижней границы облаков в метрах; квадратными скобками обозначены формы облаков: Ci - перистые, Cs - перисто-слоистые, Cc - перисто-кучевые, Ac - высококучевые, As - высокослоистые, Sc - слоисто-кучевые, Ns - слоисто-дождевые, Cu - кучевые, Cb - кучево-дождевые. Подробнее классификацию облаков см. в Атласе облаков (PDF).
T - Температура воздуха - температура, измеренная на высоте 2 м над землей.
Td - Температура точки росы - температура, при понижении до которой содержащийся в воздухе водяной пар достигнет насыщения.
f - Относительная влажность воздуха - влажноcть воздуха, измеренная на высоте 2 м над землей.
Te - Эффективная температура - температура, которую ощущает одетый по сезону человек в тени. Характеристика душности погоды. При расчете учитывается влияние влажности воздуха и скорости ветра на теплоощущения человека.
Tes - Эффективная температура на солнце - температура, которую ощущает человек, с поправкой на солнечный нагрев. Характеристика знойности погоды. Зависит от высоты солнца над горизонтом, облачности и скорости ветра. Ночью, в пасмурную погоду, а также при ветре 12 м/с и более поправка равна нулю.
P - Атмосферное давление - приведенное к уровню моря атмосферное давление.
Po - Атмосферное давление - измеренное на уровне метеостанции атмосферное давление.
Tmin - Минимальная температура - минимум температуры воздуха на высоте 2 м над землей.
Tmax - Максимальная температура - максимум температуры воздуха на высоте 2 м над землей.
R - Количество осадков - Количество выпавших осадков, мм. При наведении курсора мыши на число - период времени, за который выпало указанное количество осадков.
S - Снежный покров - Высота снежного покрова, см. При наведении курсора мыши на число - состояние снежного покрова и степень покрытия местности в баллах.